Terug naar catalogus

OPS 4682 DEB

ActiefPO
NORAD 55114·DEBRIS·🇺🇸 United States

Gelanceerd Apr 3, 1965 vanaf Vandenberg Space Force Base

Loading…

Volgende Passages (komende 24 uur)

TLE

VersSource: Space-Track

Epoch: Sep 13, 2026, 18:38 UTC

1 55114U 65027HD  26256.77660681  .00000101  00000-0  32350-3 0  9996
2 55114  90.2700  20.3007 0032517 215.8550 144.0389 12.97421303559372

Volg OPS 4682 DEB in realtime met AllMySat

Download on the App Store